User: anonymous   Login
Location: Unspecified
(0.0000°N, 0.0000°E)
Time: 15:55:41
(UTC+00:00)
Language:

Snapshot - Orbit

View from above orbital plane
View from above orbital plane
View from above satellite
View from above satellite

Ground track
Ground track

The orbit data is extracted from the following two-line orbital elements,

1 01314U 65027A   16209.83948751  .00000004  00000-0 -10387-4 0  9990
2 01314  90.3074 275.7174 0029911 349.0459 145.1814 12.91746713165189
Epoch (UTC): 27 July 2016 20:08:51
Eccentricity: 0.0029911
inclination: 90.3074°
perigee height: 1271 km
apogee height: 1317 km
right ascension of ascending node: 275.7174°
argument of perigee: 349.0459°
revolutions per day: 12.91746713
mean anomaly at epoch: 145.1814°
orbit number at epoch: 16518

The dashed part of the orbit path shows where the satellite is in the earth's shadow,  

DLR